Weather History for Dutch Harbor, AK

Change the Weather History Date:

Sunday, March 30, 2014

  Actual Average Record
Temperature  
Mean Temperature 36 °F -  
Max Temperature 39 °F 38 °F 56 °F (1993)
Min Temperature 32 °F 28 °F 15 °F (1985)
Degree Days  
Heating Degree Days 30    
Moisture  
Dew Point 29 °F    
Average Humidity 75    
Maximum Humidity 93    
Minimum Humidity 60    
Precipitation  
Precipitation 0.40 in - - ()
Sea Level Pressure  
Sea Level Pressure 29.90 in    
Wind  
Wind Speed 16 mph (SE)    
Max Wind Speed 39 mph    
Max Gust Speed 55 mph    
Visibility 7 miles    
Events Rain , Snow    
Averages and records for this station are not official NWS values.
T = Trace of Precipitation, MM = Missing Value Source: NWS Daily Summary

Daily Weather History Graph

Daily Weather History Graph

Search for Another Location

Airport:

Trip Planner

Search our weather history database for the weather conditions in past years. The results will help you decide how hot, cold, wet, or windy it might be!

Date:

Astronomy

Mar. 30, 2014 Rise Set
Actual Time 8:43 AM AKDT 9:38 PM AKDT
Civil Twilight 8:07 AM AKDT 10:14 PM AKDT
Nautical Twilight 7:24 AM AKDT 10:58 PM AKDT
Astronomical Twilight 6:37 AM AKDT 11:45 PM AKDT
Moon 8:35 AM AKDT 10:12 PM AKDT
Length of Visible Light 14h 07m
Length of Day
12h 55m
New Moon, 0% of the Moon is Illuminated
Mar 30
New Moon
Apr 7
First Quarter
Apr 14
Full
Apr 21
Last Quarter
Apr 28
New

Hourly Weather History & Observations

Time (AKDT) Temp. Windchill Dew Point Humidity Pressure Visibility Wind Dir Wind Speed Gust Speed Precip Events Conditions
12:56 AM 36.0 °F - 24.1 °F 62% 30.19 in 10.0 mi Calm Calm - N/A   Overcast
1:56 AM 35.1 °F 31.0 °F 25.0 °F 67% 30.19 in 10.0 mi SSW 4.6 mph - N/A   Overcast
2:56 AM 34.0 °F 28.0 °F 25.0 °F 70% 30.18 in 10.0 mi SW 6.9 mph - N/A   Overcast
3:56 AM 35.1 °F 31.0 °F 25.0 °F 67% 30.18 in 10.0 mi SW 4.6 mph - N/A   Overcast
4:56 AM 34.0 °F - 24.1 °F 67% 30.17 in 10.0 mi Calm Calm - N/A   Overcast
5:56 AM 32.0 °F - 24.1 °F 73% 30.16 in 10.0 mi Calm Calm - N/A   Clear
6:13 AM 33.8 °F 30.8 °F 23.0 °F 65% 30.14 in 10.0 mi SE 3.5 mph - N/A   Clear
6:56 AM 34.0 °F 27.2 °F 24.1 °F 67% 30.14 in 10.0 mi South 8.1 mph - N/A   Clear
7:56 AM 34.0 °F 28.8 °F 25.0 °F 70% 30.13 in 10.0 mi SSE 5.8 mph - N/A   Clear
7:59 AM 33.8 °F 27.7 °F 24.8 °F 70% 30.11 in 10.0 mi South 6.9 mph - N/A   Scattered Clouds
9:14 AM 37.4 °F 28.2 °F 26.6 °F 65% 30.09 in 10.0 mi SE 16.1 mph 24.2 mph N/A   Scattered Clouds
9:53 AM 37.4 °F 27.5 °F 24.8 °F 60% 30.07 in 10.0 mi SE 18.4 mph 25.3 mph N/A   Scattered Clouds
9:56 AM 37.0 °F 27.4 °F 25.0 °F 62% 30.09 in 10.0 mi SE 17.3 mph 25.3 mph N/A   Scattered Clouds
10:05 AM 37.4 °F 27.8 °F 26.6 °F 65% 30.06 in 10.0 mi SE 17.3 mph - N/A   Scattered Clouds
10:56 AM 37.9 °F 28.5 °F 26.1 °F 62% 30.06 in 10.0 mi SE 17.3 mph 26.5 mph N/A   Overcast
10:57 AM 37.4 °F 28.2 °F 26.6 °F 65% 30.05 in 10.0 mi SE 16.1 mph 26.5 mph N/A   Overcast
11:56 AM 37.9 °F 27.1 °F 26.1 °F 62% 30.04 in 10.0 mi SE 23.0 mph 31.1 mph N/A   Overcast
12:00 PM 37.4 °F 26.6 °F 26.6 °F 65% 30.02 in 10.0 mi SE 21.9 mph 31.1 mph N/A   Overcast
12:56 PM 39.0 °F 29.3 °F 27.0 °F 62% 30.02 in 10.0 mi SE 19.6 mph 34.5 mph N/A   Overcast
1:56 PM 39.0 °F 28.3 °F 27.0 °F 62% 29.99 in 10.0 mi SE 24.2 mph 33.4 mph N/A   Overcast
2:09 PM 39.2 °F 28.5 °F 28.4 °F 65% 29.96 in 10.0 mi SE 24.2 mph 32.2 mph N/A   Overcast
2:38 PM 39.2 °F 27.8 °F 28.4 °F 65% 29.93 in 10.0 mi SE 27.6 mph 36.8 mph N/A   Overcast
2:56 PM 39.0 °F 27.2 °F 28.0 °F 65% 29.94 in 10.0 mi SE 29.9 mph 41.4 mph N/A   Overcast
2:58 PM 39.2 °F 27.0 °F 28.4 °F 65% 29.91 in 10.0 mi SE 32.2 mph 43.7 mph N/A   Overcast
3:22 PM 39.2 °F 27.4 °F 28.4 °F 65% 29.90 in 10.0 mi SE 29.9 mph 40.3 mph N/A   Overcast
3:42 PM 39.2 °F 27.0 °F 28.4 °F 65% 29.89 in 10.0 mi SE 32.2 mph 46.0 mph N/A   Overcast
3:56 PM 39.0 °F 27.0 °F 28.0 °F 65% 29.90 in 10.0 mi SE 31.1 mph 39.1 mph N/A   Overcast
4:56 PM 39.0 °F 28.3 °F 28.9 °F 67% 29.86 in 10.0 mi SE 24.2 mph 50.6 mph N/A   Overcast
6:25 PM 37.4 °F 24.6 °F 30.2 °F 75% 29.79 in 6.0 mi SE 32.2 mph 41.4 mph N/A Rain Light Rain
6:40 PM 37.4 °F 25.0 °F 30.2 °F 75% 29.78 in 2.5 mi SE 29.9 mph 38.0 mph N/A Rain Light Rain
6:56 PM 36.0 °F 21.5 °F 30.9 °F 82% 29.77 in 2.5 mi SE 39.1 mph 55.2 mph N/A Rain Light Rain
7:08 PM 35.6 °F 21.7 °F 32.0 °F 87% 29.75 in 4.0 mi SE 34.5 mph 47.2 mph 0.00 in Rain Light Rain
7:13 PM 35.6 °F 21.9 °F 32.0 °F 87% 29.76 in 2.0 mi SE 33.4 mph 47.2 mph 0.00 in Rain Light Rain
7:29 PM 35.6 °F 22.3 °F 30.2 °F 81% 29.75 in 5.0 mi SE 31.1 mph 50.6 mph 0.00 in Rain Light Rain
7:49 PM 35.6 °F 24.0 °F 30.2 °F 81% 29.74 in 3.0 mi SSE 23.0 mph 46.0 mph 0.01 in Snow Light Snow
7:56 PM 35.1 °F 23.8 °F 30.9 °F 85% 29.76 in 2.5 mi SE 20.7 mph 40.3 mph 0.02 in Snow Light Snow
8:08 PM 35.6 °F 23.0 °F 30.2 °F 81% 29.72 in 5.0 mi SE 27.6 mph 40.3 mph 0.01 in   Overcast
8:14 PM 35.6 °F 21.9 °F 32.0 °F 87% 29.71 in 4.0 mi SE 33.4 mph 41.4 mph 0.01 in Rain Light Rain
8:36 PM 35.6 °F 21.1 °F 32.0 °F 87% 29.69 in 2.5 mi SE 38.0 mph 47.2 mph 0.02 in Rain Light Rain
8:56 PM 36.0 °F 21.8 °F 33.1 °F 89% 29.70 in 2.5 mi SE 36.8 mph 51.8 mph 0.04 in Rain Light Rain
9:21 PM 35.6 °F 21.3 °F 33.8 °F 93% 29.67 in 1.2 mi SE 36.8 mph 48.3 mph 0.03 in Snow Light Snow
9:48 PM 35.6 °F 22.7 °F 33.8 °F 93% 29.67 in 1.5 mi SE 28.8 mph 43.7 mph 0.07 in   Overcast
9:54 PM 35.6 °F 22.1 °F 33.8 °F 93% 29.67 in 1.0 mi SE 32.2 mph 46.0 mph 0.08 in Snow Light Snow
9:56 PM 36.0 °F 22.6 °F 33.1 °F 89% 29.68 in 1.0 mi SE 32.2 mph 46.0 mph 0.09 in Snow Light Snow
10:03 PM 35.6 °F 22.3 °F 33.8 °F 93% 29.66 in 1.5 mi SE 31.1 mph 47.2 mph 0.01 in Snow Light Snow
10:21 PM 35.6 °F 24.0 °F 33.8 °F 93% 29.67 in 2.5 mi SE 23.0 mph 42.6 mph 0.06 in   Overcast
10:41 PM 37.4 °F 26.4 °F 33.8 °F 87% 29.67 in 3.0 mi SE 23.0 mph 36.8 mph 0.10 in   Overcast
10:56 PM 37.0 °F 25.9 °F 34.0 °F 89% 29.68 in 3.0 mi SE 23.0 mph 46.0 mph 0.12 in   Overcast
11:11 PM 37.4 °F 26.4 °F 33.8 °F 87% 29.66 in 2.5 mi ESE 23.0 mph 40.3 mph 0.02 in   Overcast
11:56 PM 37.9 °F 24.7 °F 34.0 °F 86% 29.64 in 2.5 mi ESE 35.7 mph 52.9 mph 0.13 in Rain Light Rain